Time,TemperatureF,DewpointF,PressureIn,WindDirection,WindDirectionDegrees,WindSpeedMPH,WindSpeedGustMPH,Humidity,HourlyPrecipIn,Conditions,Clouds,dailyrainin,SoftwareType,DateUTC
2013-02-05 04:02:00,17.0,16.0,29.80,NE,45,6.0,9.0,87,0.00,,,0.00,Rainwise IP-100,2013-02-05 09:02:00,
2013-02-05 04:07:00,17.0,16.0,29.79,NNE,22,0.0,9.0,87,0.00,,,0.00,Rainwise IP-100,2013-02-05 09:07:00,
2013-02-05 04:12:00,17.0,16.0,29.79,NNE,22,4.0,9.0,88,0.00,,,0.00,Rainwise IP-100,2013-02-05 09:12:00,
2013-02-05 04:17:00,17.0,16.0,29.79,NNE,22,4.0,10.0,87,0.00,,,0.00,Rainwise IP-100,2013-02-05 09:17:00,
2013-02-05 04:22:00,17.0,16.0,29.79,NNE,22,1.0,9.0,87,0.00,,,0.00,Rainwise IP-100,2013-02-05 09:22:00,
2013-02-05 04:27:00,17.0,16.0,29.79,NNE,22,5.0,9.0,87,0.00,,,0.00,Rainwise IP-100,2013-02-05 09:27:00,
2013-02-05 04:32:00,17.0,16.0,29.80,North,360,5.0,6.0,87,0.00,,,0.00,Rainwise IP-100,2013-02-05 09:32:00,
2013-02-05 04:37:00,17.0,16.0,29.80,NNE,22,5.0,7.0,87,0.00,,,0.00,Rainwise IP-100,2013-02-05 09:37:00,
2013-02-05 04:42:00,17.0,16.0,29.80,NE,45,0.0,10.0,87,0.00,,,0.00,Rainwise IP-100,2013-02-05 09:42:00,
2013-02-05 04:47:00,17.0,16.0,29.80,NNE,22,2.0,7.0,88,0.00,,,0.00,Rainwise IP-100,2013-02-05 09:47:00,
2013-02-05 04:52:00,17.0,16.0,29.80,NNE,22,1.0,6.0,88,0.00,,,0.00,Rainwise IP-100,2013-02-05 09:52:00,
2013-02-05 04:57:00,17.0,16.0,29.80,NNE,22,3.0,4.0,88,0.00,,,0.00,Rainwise IP-100,2013-02-05 09:57:00,
2013-02-05 05:02:00,17.0,16.0,29.80,NNE,22,0.0,6.0,88,0.00,,,0.00,Rainwise IP-100,2013-02-05 10:02:00,
2013-02-05 05:07:00,17.0,16.0,29.80,NNE,22,1.0,6.0,88,0.00,,,0.00,Rainwise IP-100,2013-02-05 10:07:00,
2013-02-05 05:12:00,17.0,16.0,29.80,NE,45,5.0,5.0,88,0.00,,,0.00,Rainwise IP-100,2013-02-05 10:12:00,
2013-02-05 05:17:00,17.0,16.0,29.80,NE,45,0.0,8.0,89,0.00,,,0.00,Rainwise IP-100,2013-02-05 10:17:00,
2013-02-05 05:22:00,17.0,16.0,29.80,NNE,22,2.0,7.0,88,0.00,,,0.00,Rainwise IP-100,2013-02-05 10:22:00,
2013-02-05 05:27:00,17.0,16.0,29.80,North,360,6.0,7.0,88,0.00,,,0.00,Rainwise IP-100,2013-02-05 10:27:00,
2013-02-05 05:32:00,17.0,16.0,29.80,NNE,22,2.0,8.0,88,0.00,,,0.00,Rainwise IP-100,2013-02-05 10:32:00,
2013-02-05 05:37:00,17.0,16.0,29.81,North,360,0.0,5.0,88,0.00,,,0.00,Rainwise IP-100,2013-02-05 10:37:00,
2013-02-05 05:42:00,17.0,16.0,29.81,North,360,2.0,2.0,88,0.00,,,0.00,Rainwise IP-100,2013-02-05 10:42:00,
2013-02-05 05:47:00,17.0,16.0,29.81,NE,45,0.0,5.0,88,0.00,,,0.00,Rainwise IP-100,2013-02-05 10:47:00,
2013-02-05 05:52:00,17.0,16.0,29.81,NE,45,0.0,5.0,88,0.00,,,0.00,Rainwise IP-100,2013-02-05 10:52:00,
2013-02-05 05:57:00,17.0,16.0,29.81,NNE,22,0.0,2.0,88,0.00,,,0.00,Rainwise IP-100,2013-02-05 10:57:00,
2013-02-05 06:02:00,17.0,16.0,29.81,NNE,22,0.0,4.0,88,0.00,,,0.00,Rainwise IP-100,2013-02-05 11:02:00,
2013-02-05 06:07:00,17.0,16.0,29.80,NE,45,1.0,3.0,88,0.00,,,0.00,Rainwise IP-100,2013-02-05 11:07:00,
2013-02-05 06:12:00,17.0,16.0,29.80,NE,45,0.0,2.0,88,0.00,,,0.00,Rainwise IP-100,2013-02-05 11:12:00,
2013-02-05 06:17:00,17.0,16.0,29.81,NE,45,0.0,5.0,88,0.00,,,0.00,Rainwise IP-100,2013-02-05 11:17:00,
2013-02-05 06:22:00,17.0,16.0,29.81,NE,45,1.0,3.0,88,0.00,,,0.00,Rainwise IP-100,2013-02-05 11:22:00,
2013-02-05 06:27:00,17.0,16.0,29.82,NNE,22,0.0,3.0,87,0.00,,,0.00,Rainwise IP-100,2013-02-05 11:27:00,
2013-02-05 06:32:00,17.0,16.0,29.82,North,360,0.0,1.0,88,0.00,,,0.00,Rainwise IP-100,2013-02-05 11:32:00,
2013-02-05 06:37:00,17.0,16.0,29.82,NNE,22,0.0,1.0,88,0.00,,,0.00,Rainwise IP-100,2013-02-05 11:37:00,
2013-02-05 06:42:00,17.0,16.0,29.82,NNE,22,1.0,3.0,88,0.00,,,0.00,Rainwise IP-100,2013-02-05 11:42:00,
2013-02-05 06:47:00,17.0,16.0,29.82,NNE,22,0.0,1.0,87,0.00,,,0.00,Rainwise IP-100,2013-02-05 11:47:00,
2013-02-05 06:52:00,17.0,16.0,29.82,North,360,0.0,3.0,87,0.00,,,0.00,Rainwise IP-100,2013-02-05 11:52:00,
2013-02-05 06:57:00,17.0,16.0,29.82,North,360,0.0,3.0,88,0.00,,,0.00,Rainwise IP-100,2013-02-05 11:57:00,
2013-02-05 07:02:00,17.0,16.0,29.83,North,360,0.0,1.0,88,0.00,,,0.00,Rainwise IP-100,2013-02-05 12:02:00,
2013-02-05 07:07:00,17.0,16.0,29.83,NNE,22,0.0,2.0,88,0.00,,,0.00,Rainwise IP-100,2013-02-05 12:07:00,
2013-02-05 07:12:00,17.0,16.0,29.83,NNE,22,1.0,4.0,88,0.00,,,0.00,Rainwise IP-100,2013-02-05 12:12:00,
2013-02-05 07:17:00,17.0,16.0,29.83,North,360,0.0,4.0,88,0.00,,,0.00,Rainwise IP-100,2013-02-05 12:17:00,
2013-02-05 07:22:00,17.0,16.0,29.83,NE,45,2.0,3.0,88,0.00,,,0.00,Rainwise IP-100,2013-02-05 12:22:00,
2013-02-05 07:27:00,17.0,16.0,29.83,NNE,22,0.0,5.0,87,0.00,,,0.00,Rainwise IP-100,2013-02-05 12:27:00,
2013-02-05 07:32:00,17.0,16.0,29.83,North,360,2.0,3.0,88,0.00,,,0.00,Rainwise IP-100,2013-02-05 12:32:00,
2013-02-05 07:37:00,17.0,16.0,29.83,NNE,22,1.0,5.0,87,0.00,,,0.00,Rainwise IP-100,2013-02-05 12:37:00,
2013-02-05 07:42:00,17.0,16.0,29.83,NNW,337,0.0,4.0,86,0.00,,,0.00,Rainwise IP-100,2013-02-05 12:42:00,
2013-02-05 07:47:00,17.0,16.0,29.83,North,360,0.0,4.0,86,0.00,,,0.00,Rainwise IP-100,2013-02-05 12:47:00,
2013-02-05 07:52:00,17.0,16.0,29.83,NW,315,0.0,5.0,87,0.00,,,0.00,Rainwise IP-100,2013-02-05 12:52:00,
2013-02-05 07:57:00,17.0,16.0,29.83,NNW,337,3.0,4.0,88,0.00,,,0.00,Rainwise IP-100,2013-02-05 12:57:00,
2013-02-05 08:02:00,17.0,16.0,29.84,North,360,0.0,4.0,89,0.00,,,0.00,Rainwise IP-100,2013-02-05 13:02:00,
2013-02-05 08:07:00,18.0,16.0,29.84,North,360,0.0,2.0,88,0.00,,,0.00,Rainwise IP-100,2013-02-05 13:07:00,
2013-02-05 08:12:00,18.0,16.0,29.84,NNE,22,1.0,5.0,89,0.00,,,0.00,Rainwise IP-100,2013-02-05 13:12:00,
2013-02-05 08:17:00,18.0,16.0,29.85,North,360,1.0,6.0,89,0.00,,,0.00,Rainwise IP-100,2013-02-05 13:17:00,
2013-02-05 08:22:00,18.0,16.0,29.85,NNW,337,3.0,5.0,88,0.00,,,0.00,Rainwise IP-100,2013-02-05 13:22:00,
2013-02-05 08:27:00,18.0,16.0,29.85,NE,45,0.0,5.0,87,0.00,,,0.00,Rainwise IP-100,2013-02-05 13:27:00,
2013-02-05 08:32:00,18.0,16.0,29.85,North,360,1.0,5.0,87,0.00,,,0.00,Rainwise IP-100,2013-02-05 13:32:00,
2013-02-05 08:37:00,18.0,16.0,29.85,North,360,1.0,7.0,85,0.00,,,0.00,Rainwise IP-100,2013-02-05 13:37:00,
2013-02-05 08:42:00,18.0,14.0,29.85,North,360,2.0,6.0,84,0.00,,,0.00,Rainwise IP-100,2013-02-05 13:42:00,
2013-02-05 08:47:00,18.0,14.0,29.85,NNE,22,4.0,7.0,84,0.00,,,0.00,Rainwise IP-100,2013-02-05 13:47:00,
2013-02-05 08:52:00,18.0,14.0,29.85,North,360,5.0,6.0,84,0.00,,,0.00,Rainwise IP-100,2013-02-05 13:52:00,
2013-02-05 08:57:00,19.0,16.0,29.85,NNE,22,1.0,6.0,83,0.00,,,0.00,Rainwise IP-100,2013-02-05 13:57:00,
2013-02-05 09:02:00,19.0,16.0,29.85,NNW,337,5.0,6.0,83,0.00,,,0.00,Rainwise IP-100,2013-02-05 14:02:00,
2013-02-05 09:07:00,19.0,16.0,29.85,North,360,0.0,10.0,81,0.00,,,0.00,Rainwise IP-100,2013-02-05 14:07:00,
2013-02-05 09:12:00,19.0,16.0,29.85,NNE,22,3.0,5.0,80,0.00,,,0.00,Rainwise IP-100,2013-02-05 14:12:00,
2013-02-05 09:17:00,19.0,16.0,29.85,NNE,22,0.0,6.0,80,0.00,,,0.00,Rainwise IP-100,2013-02-05 14:17:00,
2013-02-05 09:22:00,20.0,16.0,29.85,NNE,22,0.0,3.0,80,0.00,,,0.00,Rainwise IP-100,2013-02-05 14:22:00,
2013-02-05 09:27:00,20.0,16.0,29.85,NNW,337,5.0,6.0,78,0.00,,,0.00,Rainwise IP-100,2013-02-05 14:27:00,
2013-02-05 09:32:00,20.0,14.0,29.85,NNW,337,3.0,7.0,76,0.00,,,0.00,Rainwise IP-100,2013-02-05 14:32:00,
2013-02-05 09:35:00,20.0,14.0,29.85,North,360,6.0,8.0,77,0.00,,,0.00,Rainwise IP-100,2013-02-05 14:35:00,
2013-02-05 09:40:00,20.0,14.0,29.85,North,360,2.0,8.0,75,0.00,,,0.00,Rainwise IP-100,2013-02-05 14:40:00,
2013-02-05 09:45:00,20.0,14.0,29.85,North,360,2.0,8.0,76,0.00,,,0.00,Rainwise IP-100,2013-02-05 14:45:00,
2013-02-05 09:50:00,20.0,14.0,29.85,NE,45,5.0,9.0,75,0.00,,,0.00,Rainwise IP-100,2013-02-05 14:50:00,
2013-02-05 09:55:00,20.0,14.0,29.85,NE,45,4.0,8.0,76,0.00,,,0.00,Rainwise IP-100,2013-02-05 14:55:00,
2013-02-05 10:00:00,20.0,14.0,29.85,NE,45,0.0,6.0,76,0.00,,,0.00,Rainwise IP-100,2013-02-05 15:00:00,
2013-02-05 10:05:00,21.0,14.0,29.85,NNE,22,5.0,6.0,72,0.00,,,0.00,Rainwise IP-100,2013-02-05 15:05:00,
2013-02-05 10:10:00,21.0,14.0,29.85,NE,45,6.0,6.0,71,0.00,,,0.00,Rainwise IP-100,2013-02-05 15:10:00,
2013-02-05 10:15:00,21.0,14.0,29.85,NE,45,8.0,9.0,69,0.00,,,0.00,Rainwise IP-100,2013-02-05 15:15:00,
2013-02-05 10:20:00,21.0,11.0,29.86,NE,45,7.0,8.0,68,0.00,,,0.00,Rainwise IP-100,2013-02-05 15:20:00,
2013-02-05 10:25:00,21.0,11.0,29.86,NNE,22,3.0,9.0,67,0.00,,,0.00,Rainwise IP-100,2013-02-05 15:25:00,
2013-02-05 10:30:00,21.0,14.0,29.86,NNE,22,5.0,6.0,69,0.00,,,0.00,Rainwise IP-100,2013-02-05 15:30:00,
2013-02-05 10:35:00,21.0,11.0,29.86,NE,45,6.0,9.0,67,0.00,,,0.00,Rainwise IP-100,2013-02-05 15:35:00,
2013-02-05 10:40:00,21.0,14.0,29.86,NNE,22,1.0,10.0,69,0.00,,,0.00,Rainwise IP-100,2013-02-05 15:40:00,
2013-02-05 10:45:00,22.0,14.0,29.86,ENE,67,7.0,9.0,69,0.00,,,0.00,Rainwise IP-100,2013-02-05 15:45:00,
2013-02-05 10:50:00,22.0,14.0,29.85,NE,45,6.0,9.0,67,0.00,,,0.00,Rainwise IP-100,2013-02-05 15:50:00,
2013-02-05 10:55:00,22.0,14.0,29.84,NE,45,7.0,10.0,65,0.00,,,0.00,Rainwise IP-100,2013-02-05 15:55:00,
2013-02-05 11:00:00,22.0,14.0,29.84,NE,45,0.0,10.0,65,0.00,,,0.00,Rainwise IP-100,2013-02-05 16:00:00,
2013-02-05 11:05:00,23.0,14.0,29.84,NNE,22,0.0,10.0,64,0.00,,,0.00,Rainwise IP-100,2013-02-05 16:05:00,
2013-02-05 11:10:00,23.0,14.0,29.84,WNW,292,0.0,6.0,63,0.00,,,0.00,Rainwise IP-100,2013-02-05 16:10:00,
2013-02-05 11:15:00,24.0,14.0,29.84,NW,315,0.0,6.0,63,0.00,,,0.00,Rainwise IP-100,2013-02-05 16:15:00,
2013-02-05 11:20:00,25.0,14.0,29.84,West,270,0.0,7.0,60,0.00,,,0.00,Rainwise IP-100,2013-02-05 16:20:00,
2013-02-05 11:25:00,25.0,16.0,29.84,NW,315,0.0,6.0,61,0.00,,,0.00,Rainwise IP-100,2013-02-05 16:25:00,
2013-02-05 11:30:00,25.0,16.0,29.84,NW,315,0.0,6.0,61,0.00,,,0.00,Rainwise IP-100,2013-02-05 16:30:00,
2013-02-05 11:35:00,25.0,14.0,29.84,WNW,292,1.0,7.0,58,0.00,,,0.00,Rainwise IP-100,2013-02-05 16:35:00,
2013-02-05 11:40:00,25.0,16.0,29.84,NE,45,3.0,5.0,61,0.00,,,0.00,Rainwise IP-100,2013-02-05 16:40:00,
2013-02-05 11:45:00,25.0,14.0,29.83,SE,135,0.0,8.0,59,0.00,,,0.00,Rainwise IP-100,2013-02-05 16:45:00,
2013-02-05 11:50:00,25.0,14.0,29.83,East,90,5.0,6.0,59,0.00,,,0.00,Rainwise IP-100,2013-02-05 16:50:00,
2013-02-05 11:55:00,25.0,16.0,29.82,NE,45,0.0,8.0,61,0.00,,,0.00,Rainwise IP-100,2013-02-05 16:55:00,
2013-02-05 12:00:00,26.0,14.0,29.81,NE,45,7.0,9.0,58,0.00,,,0.00,Rainwise IP-100,2013-02-05 17:00:00,
2013-02-05 12:05:00,26.0,14.0,29.81,ENE,67,0.0,7.0,59,0.00,,,0.00,Rainwise IP-100,2013-02-05 17:05:00,
2013-02-05 12:10:00,26.0,14.0,29.80,NNE,22,0.0,5.0,58,0.00,,,0.00,Rainwise IP-100,2013-02-05 17:10:00,
2013-02-05 12:15:00,27.0,14.0,29.80,NE,45,3.0,10.0,56,0.00,,,0.00,Rainwise IP-100,2013-02-05 17:15:00,
2013-02-05 12:20:00,26.0,14.0,29.79,North,360,0.0,8.0,56,0.00,,,0.00,Rainwise IP-100,2013-02-05 17:20:00,
2013-02-05 12:25:00,26.0,14.0,29.79,NNW,337,2.0,5.0,57,0.00,,,0.00,Rainwise IP-100,2013-02-05 17:25:00,
2013-02-05 12:30:00,27.0,14.0,29.78,NE,45,0.0,7.0,55,0.00,,,0.00,Rainwise IP-100,2013-02-05 17:30:00,
2013-02-05 12:35:00,27.0,14.0,29.78,East,90,5.0,5.0,55,0.00,,,0.00,Rainwise IP-100,2013-02-05 17:35:00,
2013-02-05 12:40:00,26.0,14.0,29.78,NE,45,0.0,7.0,55,0.00,,,0.00,Rainwise IP-100,2013-02-05 17:40:00,
2013-02-05 12:45:00,26.0,14.0,29.78,NE,45,2.0,4.0,57,0.00,,,0.00,Rainwise IP-100,2013-02-05 17:45:00,
2013-02-05 12:50:00,26.0,14.0,29.78,East,90,1.0,6.0,57,0.00,,,0.00,Rainwise IP-100,2013-02-05 17:50:00,
2013-02-05 12:55:00,26.0,14.0,29.78,NE,45,1.0,6.0,56,0.00,,,0.00,Rainwise IP-100,2013-02-05 17:55:00,
2013-02-05 13:00:00,26.0,14.0,29.79,ENE,67,0.0,4.0,57,0.00,,,0.00,Rainwise IP-100,2013-02-05 18:00:00,
2013-02-05 13:05:00,26.0,14.0,29.79,North,360,6.0,6.0,57,0.00,,,0.00,Rainwise IP-100,2013-02-05 18:05:00,
2013-02-05 13:10:00,26.0,14.0,29.79,NW,315,0.0,6.0,57,0.00,,,0.00,Rainwise IP-100,2013-02-05 18:10:00,
2013-02-05 13:15:00,27.0,14.0,29.78,NW,315,0.0,2.0,56,0.00,,,0.00,Rainwise IP-100,2013-02-05 18:15:00,
2013-02-05 13:20:00,27.0,16.0,29.78,NNW,337,0.0,4.0,57,0.00,,,0.00,Rainwise IP-100,2013-02-05 18:20:00,
2013-02-05 13:25:00,27.0,14.0,29.78,NE,45,1.0,6.0,55,0.00,,,0.00,Rainwise IP-100,2013-02-05 18:25:00,
2013-02-05 13:30:00,28.0,16.0,29.78,North,360,0.0,1.0,57,0.00,,,0.00,Rainwise IP-100,2013-02-05 18:30:00,
2013-02-05 13:35:00,29.0,14.0,29.77,NE,45,2.0,7.0,53,0.00,,,0.00,Rainwise IP-100,2013-02-05 18:35:00,
2013-02-05 13:40:00,29.0,14.0,29.77,NNE,22,5.0,8.0,51,0.00,,,0.00,Rainwise IP-100,2013-02-05 18:40:00,
2013-02-05 13:45:00,30.0,16.0,29.77,NNW,337,0.0,6.0,51,0.00,,,0.00,Rainwise IP-100,2013-02-05 18:45:00,
2013-02-05 13:50:00,30.0,16.0,29.77,NW,315,5.0,5.0,50,0.00,,,0.00,Rainwise IP-100,2013-02-05 18:50:00,
2013-02-05 13:55:00,30.0,16.0,29.77,NE,45,4.0,8.0,50,0.00,,,0.00,Rainwise IP-100,2013-02-05 18:55:00,
2013-02-05 14:00:00,30.0,16.0,29.77,NE,45,0.0,6.0,50,0.00,,,0.00,Rainwise IP-100,2013-02-05 19:00:00,
2013-02-05 14:05:00,30.0,16.0,29.76,NE,45,0.0,5.0,52,0.00,,,0.00,Rainwise IP-100,2013-02-05 19:05:00,
2013-02-05 14:10:00,31.0,16.0,29.76,North,360,0.0,2.0,52,0.00,,,0.00,Rainwise IP-100,2013-02-05 19:10:00,
2013-02-05 14:16:00,32.0,16.0,29.76,NW,315,0.0,1.0,50,0.00,,,0.00,Rainwise IP-100,2013-02-05 19:16:00,
2013-02-05 14:21:00,32.0,14.0,29.75,NNW,337,0.0,6.0,46,0.00,,,0.00,Rainwise IP-100,2013-02-05 19:21:00,
2013-02-05 14:26:00,32.0,14.0,29.75,North,360,0.0,5.0,47,0.00,,,0.00,Rainwise IP-100,2013-02-05 19:26:00,
2013-02-05 14:31:00,32.0,14.0,29.75,East,90,0.0,5.0,46,0.00,,,0.00,Rainwise IP-100,2013-02-05 19:31:00,
2013-02-05 14:36:00,31.0,16.0,29.75,SW,225,0.0,4.0,54,0.00,,,0.00,Rainwise IP-100,2013-02-05 19:36:00,
2013-02-05 14:41:00,32.0,16.0,29.75,ENE,67,0.0,5.0,50,0.00,,,0.00,Rainwise IP-100,2013-02-05 19:41:00,
2013-02-05 14:46:00,32.0,16.0,29.75,NW,315,1.0,5.0,52,0.00,,,0.00,Rainwise IP-100,2013-02-05 19:46:00,
2013-02-05 14:51:00,32.0,14.0,29.74,North,360,5.0,5.0,47,0.00,,,0.00,Rainwise IP-100,2013-02-05 19:51:00,
2013-02-05 14:56:00,31.0,14.0,29.74,NW,315,0.0,5.0,49,0.00,,,0.00,Rainwise IP-100,2013-02-05 19:56:00,
2013-02-05 15:01:00,30.0,14.0,29.74,NW,315,0.0,5.0,48,0.00,,,0.00,Rainwise IP-100,2013-02-05 20:01:00,
2013-02-05 15:06:00,30.0,16.0,29.74,North,360,0.0,5.0,50,0.00,,,0.00,Rainwise IP-100,2013-02-05 20:06:00,
2013-02-05 15:11:00,30.0,16.0,29.75,NNE,22,0.0,1.0,50,0.00,,,0.00,Rainwise IP-100,2013-02-05 20:11:00,
2013-02-05 15:16:00,29.0,14.0,29.75,NW,315,0.0,2.0,52,0.00,,,0.00,Rainwise IP-100,2013-02-05 20:16:00,
2013-02-05 15:21:00,29.0,14.0,29.75,NNW,337,0.0,2.0,52,0.00,,,0.00,Rainwise IP-100,2013-02-05 20:21:00,
2013-02-05 15:26:00,29.0,14.0,29.75,WNW,292,0.0,0.0,53,0.00,,,0.00,Rainwise IP-100,2013-02-05 20:26:00,
2013-02-05 15:31:00,29.0,14.0,29.75,NW,315,0.0,1.0,52,0.00,,,0.00,Rainwise IP-100,2013-02-05 20:31:00,
2013-02-05 15:36:00,28.0,14.0,29.75,NW,315,0.0,1.0,53,0.00,,,0.00,Rainwise IP-100,2013-02-05 20:36:00,
2013-02-05 15:41:00,28.0,14.0,29.75,WNW,292,0.0,0.0,54,0.00,,,0.00,Rainwise IP-100,2013-02-05 20:41:00,
2013-02-05 15:46:00,28.0,14.0,29.76,WNW,292,0.0,0.0,55,0.00,,,0.00,Rainwise IP-100,2013-02-05 20:46:00,
2013-02-05 15:51:00,28.0,14.0,29.76,West,270,0.0,0.0,55,0.00,,,0.00,Rainwise IP-100,2013-02-05 20:51:00,
2013-02-05 15:56:00,27.0,14.0,29.75,West,270,1.0,1.0,55,0.00,,,0.00,Rainwise IP-100,2013-02-05 20:56:00,
2013-02-05 16:01:00,27.0,14.0,29.75,SW,225,0.0,1.0,56,0.00,,,0.00,Rainwise IP-100,2013-02-05 21:01:00,
2013-02-05 16:06:00,27.0,14.0,29.74,SW,225,0.0,0.0,56,0.00,,,0.00,Rainwise IP-100,2013-02-05 21:06:00,
2013-02-05 16:11:00,27.0,14.0,29.74,SW,225,0.0,0.0,56,0.00,,,0.00,Rainwise IP-100,2013-02-05 21:11:00,
2013-02-05 16:16:00,27.0,16.0,29.74,SW,225,0.0,0.0,57,0.00,,,0.00,Rainwise IP-100,2013-02-05 21:16:00,
2013-02-05 16:21:00,27.0,16.0,29.74,SW,225,0.0,1.0,57,0.00,,,0.00,Rainwise IP-100,2013-02-05 21:21:00,
2013-02-05 16:26:00,27.0,16.0,29.74,WSW,247,0.0,1.0,58,0.00,,,0.00,Rainwise IP-100,2013-02-05 21:26:00,
2013-02-05 16:31:00,27.0,16.0,29.74,West,270,0.0,2.0,58,0.00,,,0.00,Rainwise IP-100,2013-02-05 21:31:00,
2013-02-05 16:36:00,26.0,14.0,29.74,West,270,0.0,2.0,59,0.00,,,0.00,Rainwise IP-100,2013-02-05 21:36:00,
2013-02-05 16:41:00,26.0,14.0,29.74,West,270,0.0,1.0,60,0.00,,,0.00,Rainwise IP-100,2013-02-05 21:41:00,
2013-02-05 16:46:00,26.0,14.0,29.74,West,270,0.0,1.0,60,0.00,,,0.00,Rainwise IP-100,2013-02-05 21:46:00,
2013-02-05 16:51:00,26.0,14.0,29.74,West,270,0.0,1.0,59,0.00,,,0.00,Rainwise IP-100,2013-02-05 21:51:00,
2013-02-05 16:56:00,26.0,14.0,29.74,SW,225,0.0,0.0,59,0.00,,,0.00,Rainwise IP-100,2013-02-05 21:56:00,
2013-02-05 17:01:00,26.0,14.0,29.74,SW,225,0.0,1.0,59,0.00,,,0.00,Rainwise IP-100,2013-02-05 22:01:00,
2013-02-05 17:06:00,26.0,14.0,29.74,SW,225,0.0,0.0,60,0.00,,,0.00,Rainwise IP-100,2013-02-05 22:06:00,
2013-02-05 17:11:00,26.0,16.0,29.74,SW,225,0.0,0.0,61,0.00,,,0.00,Rainwise IP-100,2013-02-05 22:11:00,
2013-02-05 17:16:00,26.0,16.0,29.74,SW,225,0.0,0.0,61,0.00,,,0.00,Rainwise IP-100,2013-02-05 22:16:00,
2013-02-05 17:21:00,25.0,16.0,29.74,SW,225,0.0,0.0,61,0.00,,,0.00,Rainwise IP-100,2013-02-05 22:21:00,
2013-02-05 17:26:00,25.0,16.0,29.74,SW,225,0.0,0.0,61,0.00,,,0.00,Rainwise IP-100,2013-02-05 22:26:00,
2013-02-05 17:31:00,25.0,16.0,29.74,SW,225,0.0,0.0,61,0.00,,,0.00,Rainwise IP-100,2013-02-05 22:31:00,
2013-02-05 17:36:00,25.0,16.0,29.74,SW,225,0.0,0.0,61,0.00,,,0.00,Rainwise IP-100,2013-02-05 22:36:00,
2013-02-05 17:41:00,25.0,16.0,29.74,SW,225,0.0,0.0,61,0.00,,,0.00,Rainwise IP-100,2013-02-05 22:41:00,
2013-02-05 17:46:00,25.0,16.0,29.74,SW,225,0.0,0.0,61,0.00,,,0.00,Rainwise IP-100,2013-02-05 22:46:00,
2013-02-05 17:51:00,25.0,16.0,29.74,SW,225,0.0,0.0,63,0.00,,,0.00,Rainwise IP-100,2013-02-05 22:51:00,
2013-02-05 17:56:00,25.0,16.0,29.74,SW,225,0.0,0.0,63,0.00,,,0.00,Rainwise IP-100,2013-02-05 22:56:00,
2013-02-05 18:01:00,25.0,16.0,29.74,SW,225,0.0,0.0,65,0.00,,,0.00,Rainwise IP-100,2013-02-05 23:01:00,
2013-02-05 18:06:00,25.0,16.0,29.73,SW,225,0.0,0.0,66,0.00,,,0.00,Rainwise IP-100,2013-02-05 23:06:00,
2013-02-05 18:11:00,25.0,16.0,29.73,SW,225,0.0,0.0,65,0.00,,,0.00,Rainwise IP-100,2013-02-05 23:11:00,
2013-02-05 18:16:00,25.0,16.0,29.74,SW,225,0.0,0.0,64,0.00,,,0.00,Rainwise IP-100,2013-02-05 23:16:00,
2013-02-05 18:21:00,25.0,16.0,29.74,SW,225,0.0,0.0,65,0.00,,,0.00,Rainwise IP-100,2013-02-05 23:21:00,
2013-02-05 18:26:00,25.0,16.0,29.74,SW,225,0.0,0.0,65,0.00,,,0.00,Rainwise IP-100,2013-02-05 23:26:00,
2013-02-05 18:31:00,25.0,16.0,29.74,SW,225,0.0,0.0,63,0.00,,,0.00,Rainwise IP-100,2013-02-05 23:31:00,
2013-02-05 18:36:00,25.0,16.0,29.74,SSW,202,0.0,1.0,66,0.00,,,0.00,Rainwise IP-100,2013-02-05 23:36:00,
2013-02-05 18:41:00,25.0,16.0,29.74,South,180,1.0,1.0,66,0.00,,,0.00,Rainwise IP-100,2013-02-05 23:41:00,
2013-02-05 18:46:00,25.0,16.0,29.75,South,180,0.0,5.0,66,0.00,,,0.00,Rainwise IP-100,2013-02-05 23:46:00,
2013-02-05 18:51:00,26.0,16.0,29.75,South,180,1.0,5.0,66,0.00,,,0.00,Rainwise IP-100,2013-02-05 23:51:00,
2013-02-05 18:56:00,26.0,16.0,29.75,South,180,0.0,6.0,67,0.00,,,0.00,Rainwise IP-100,2013-02-05 23:56:00,
2013-02-05 19:01:00,26.0,18.0,29.75,South,180,0.0,6.0,69,0.00,,,0.00,Rainwise IP-100,2013-02-06 00:01:00,
2013-02-05 19:06:00,26.0,18.0,29.75,SSW,202,2.0,8.0,71,0.00,,,0.00,Rainwise IP-100,2013-02-06 00:06:00,
2013-02-05 19:11:00,26.0,18.0,29.75,SW,225,3.0,8.0,73,0.00,,,0.00,Rainwise IP-100,2013-02-06 00:11:00,
2013-02-05 19:16:00,26.0,18.0,29.75,South,180,5.0,7.0,74,0.00,,,0.00,Rainwise IP-100,2013-02-06 00:16:00,
2013-02-05 19:21:00,26.0,18.0,29.76,South,180,2.0,7.0,74,0.00,,,0.00,Rainwise IP-100,2013-02-06 00:21:00,
2013-02-05 19:26:00,26.0,21.0,29.76,South,180,6.0,8.0,76,0.00,,,0.00,Rainwise IP-100,2013-02-06 00:26:00,
2013-02-05 19:31:00,26.0,21.0,29.76,South,180,3.0,10.0,76,0.00,,,0.00,Rainwise IP-100,2013-02-06 00:31:00,
2013-02-05 19:36:00,26.0,21.0,29.76,South,180,7.0,10.0,78,0.00,,,0.00,Rainwise IP-100,2013-02-06 00:36:00,
2013-02-05 19:41:00,26.0,21.0,29.76,South,180,9.0,9.0,78,0.00,,,0.00,Rainwise IP-100,2013-02-06 00:41:00,
2013-02-05 19:46:00,26.0,21.0,29.76,South,180,2.0,9.0,79,0.00,,,0.00,Rainwise IP-100,2013-02-06 00:46:00,
2013-02-05 19:51:00,26.0,21.0,29.76,South,180,1.0,7.0,79,0.00,,,0.00,Rainwise IP-100,2013-02-06 00:51:00,
2013-02-05 19:56:00,26.0,21.0,29.76,SSW,202,1.0,6.0,80,0.00,,,0.00,Rainwise IP-100,2013-02-06 00:56:00,
2013-02-05 20:01:00,26.0,21.0,29.75,SSW,202,0.0,8.0,80,0.00,,,0.00,Rainwise IP-100,2013-02-06 01:01:00,
2013-02-05 20:06:00,26.0,21.0,29.75,South,180,3.0,5.0,80,0.00,,,0.00,Rainwise IP-100,2013-02-06 01:06:00,
2013-02-05 20:11:00,26.0,21.0,29.75,SSW,202,2.0,6.0,81,0.00,,,0.00,Rainwise IP-100,2013-02-06 01:11:00,
2013-02-05 20:16:00,25.0,21.0,29.75,SSW,202,3.0,7.0,82,0.00,,,0.00,Rainwise IP-100,2013-02-06 01:16:00,
2013-02-05 20:21:00,25.0,23.0,29.75,South,180,2.0,8.0,83,0.00,,,0.00,Rainwise IP-100,2013-02-06 01:21:00,
2013-02-05 20:26:00,25.0,23.0,29.75,South,180,0.0,6.0,84,0.00,,,0.00,Rainwise IP-100,2013-02-06 01:26:00,
2013-02-05 20:31:00,25.0,23.0,29.75,SSW,202,1.0,6.0,84,0.00,,,0.00,Rainwise IP-100,2013-02-06 01:31:00,
2013-02-05 20:36:00,25.0,23.0,29.75,SSW,202,0.0,6.0,86,0.00,,,0.00,Rainwise IP-100,2013-02-06 01:36:00,
2013-02-05 20:41:00,25.0,23.0,29.75,SSW,202,2.0,5.0,86,0.00,,,0.00,Rainwise IP-100,2013-02-06 01:41:00,
2013-02-05 20:46:00,25.0,23.0,29.75,SSW,202,0.0,4.0,86,0.00,,,0.00,Rainwise IP-100,2013-02-06 01:46:00,
2013-02-05 20:51:00,25.0,23.0,29.75,South,180,0.0,3.0,88,0.00,,,0.00,Rainwise IP-100,2013-02-06 01:51:00,
2013-02-05 20:56:00,25.0,23.0,29.75,South,180,1.0,4.0,88,0.00,,,0.00,Rainwise IP-100,2013-02-06 01:56:00,
2013-02-05 21:01:00,25.0,23.0,29.75,South,180,0.0,2.0,87,0.00,,,0.00,Rainwise IP-100,2013-02-06 02:01:00,
2013-02-05 21:06:00,25.0,23.0,29.75,South,180,0.0,2.0,87,0.00,,,0.00,Rainwise IP-100,2013-02-06 02:06:00,
2013-02-05 21:11:00,25.0,23.0,29.76,South,180,0.0,0.0,87,0.00,,,0.00,Rainwise IP-100,2013-02-06 02:11:00,
2013-02-05 21:16:00,25.0,23.0,29.76,South,180,1.0,2.0,89,0.00,,,0.00,Rainwise IP-100,2013-02-06 02:16:00,
2013-02-05 21:21:00,25.0,23.0,29.75,South,180,0.0,3.0,89,0.00,,,0.00,Rainwise IP-100,2013-02-06 02:21:00,
2013-02-05 21:26:00,25.0,24.0,29.75,South,180,2.0,8.0,93,0.00,,,0.00,Rainwise IP-100,2013-02-06 02:26:00,
2013-02-05 21:31:00,25.0,24.0,29.75,SSW,202,2.0,6.0,93,0.00,,,0.00,Rainwise IP-100,2013-02-06 02:31:00,
2013-02-05 21:36:00,25.0,24.0,29.75,SSW,202,2.0,6.0,94,0.00,,,0.00,Rainwise IP-100,2013-02-06 02:36:00,
2013-02-05 21:41:00,25.0,24.0,29.75,SSW,202,6.0,6.0,94,0.00,,,0.00,Rainwise IP-100,2013-02-06 02:41:00,
2013-02-05 21:46:00,25.0,24.0,29.75,South,180,0.0,9.0,95,0.00,,,0.00,Rainwise IP-100,2013-02-06 02:46:00,
2013-02-05 21:51:00,25.0,24.0,29.75,SW,225,1.0,8.0,95,0.00,,,0.00,Rainwise IP-100,2013-02-06 02:51:00,
2013-02-05 21:56:00,25.0,24.0,29.75,SSW,202,0.0,7.0,95,0.00,,,0.00,Rainwise IP-100,2013-02-06 02:56:00,
2013-02-05 22:01:00,25.0,24.0,29.75,South,180,1.0,5.0,95,0.00,,,0.00,Rainwise IP-100,2013-02-06 03:01:00,
2013-02-05 22:06:00,25.0,24.0,29.75,SSE,157,4.0,6.0,95,0.00,,,0.00,Rainwise IP-100,2013-02-06 03:06:00,
2013-02-05 22:11:00,25.0,24.0,29.75,South,180,1.0,4.0,96,0.00,,,0.00,Rainwise IP-100,2013-02-06 03:11:00,
2013-02-05 22:16:00,25.0,24.0,29.75,South,180,2.0,5.0,96,0.00,,,0.00,Rainwise IP-100,2013-02-06 03:16:00,
2013-02-05 22:21:00,25.0,24.0,29.76,SSW,202,0.0,6.0,96,0.00,,,0.00,Rainwise IP-100,2013-02-06 03:21:00,
2013-02-05 22:26:00,25.0,24.0,29.76,South,180,0.0,5.0,96,0.00,,,0.00,Rainwise IP-100,2013-02-06 03:26:00,
2013-02-05 22:31:00,25.0,26.0,29.76,South,180,0.0,5.0,97,0.00,,,0.00,Rainwise IP-100,2013-02-06 03:31:00,
2013-02-05 22:36:00,25.0,26.0,29.76,South,180,2.0,2.0,97,0.00,,,0.00,Rainwise IP-100,2013-02-06 03:36:00,
2013-02-05 22:41:00,25.0,26.0,29.76,South,180,3.0,4.0,98,0.00,,,0.00,Rainwise IP-100,2013-02-06 03:41:00,
2013-02-05 22:46:00,25.0,26.0,29.76,South,180,1.0,7.0,98,0.00,,,0.00,Rainwise IP-100,2013-02-06 03:46:00,
2013-02-05 22:51:00,25.0,26.0,29.76,South,180,0.0,3.0,98,0.00,,,0.00,Rainwise IP-100,2013-02-06 03:51:00,
2013-02-05 22:56:00,25.0,26.0,29.75,South,180,2.0,5.0,98,0.00,,,0.00,Rainwise IP-100,2013-02-06 03:56:00,
2013-02-05 23:01:00,25.0,26.0,29.75,South,180,0.0,3.0,98,0.00,,,0.00,Rainwise IP-100,2013-02-06 04:01:00,
2013-02-05 23:06:00,25.0,26.0,29.76,South,180,0.0,2.0,98,0.00,,,0.00,Rainwise IP-100,2013-02-06 04:06:00,
2013-02-05 23:11:00,25.0,26.0,29.76,SSE,157,0.0,5.0,98,0.00,,,0.00,Rainwise IP-100,2013-02-06 04:11:00,
2013-02-05 23:16:00,25.0,26.0,29.76,SE,135,0.0,4.0,98,0.00,,,0.00,Rainwise IP-100,2013-02-06 04:16:00,
2013-02-05 23:21:00,24.0,24.0,29.76,SSE,157,0.0,6.0,98,0.00,,,0.00,Rainwise IP-100,2013-02-06 04:21:00,
2013-02-05 23:26:00,24.0,24.0,29.76,SE,135,0.0,3.0,99,0.00,,,0.00,Rainwise IP-100,2013-02-06 04:26:00,
2013-02-05 23:31:00,25.0,26.0,29.76,SE,135,0.0,6.0,99,0.00,,,0.00,Rainwise IP-100,2013-02-06 04:31:00,
2013-02-05 23:36:00,24.0,24.0,29.76,SE,135,0.0,5.0,100,0.00,,,0.00,Rainwise IP-100,2013-02-06 04:36:00,
2013-02-05 23:41:00,25.0,26.0,29.75,South,180,0.0,5.0,98,0.00,,,0.00,Rainwise IP-100,2013-02-06 04:41:00,
2013-02-05 23:46:00,24.0,24.0,29.75,SE,135,0.0,5.0,99,0.00,,,0.00,Rainwise IP-100,2013-02-06 04:46:00,
2013-02-05 23:51:00,24.0,24.0,29.76,SSE,157,2.0,5.0,99,0.00,,,0.00,Rainwise IP-100,2013-02-06 04:51:00,
2013-02-05 23:56:00,24.0,24.0,29.76,SE,135,4.0,7.0,100,0.00,,,0.00,Rainwise IP-100,2013-02-06 04:56:00,